Weather History for Monroe, LA

Change the Weather History Date:

Thursday, January 9, 2014

  Actual Average Record
Temperature  
Mean Temperature 46 °F 46 °F  
Max Temperature 53 °F 57 °F 80 °F (1957)
Min Temperature 38 °F 35 °F 10 °F (1971)
Degree Days  
Heating Degree Days 19 19  
Month to date heating degree days 252 171  
Since 1 July heating degree days 1310 1073  
Cooling Degree Days 0 0  
Month to date cooling degree days 0 0  
Year to date cooling degree days 0 0  
Moisture  
Dew Point 38 °F    
Average Humidity 79    
Maximum Humidity 93    
Minimum Humidity 64    
Precipitation  
Precipitation 0.23 in 0.17 in 1.93 in (1968)
Month to date precipitation 0.34 1.48  
Year to date precipitation 0.34 1.48  
Snow  
Snow 0.00 in - - ()
Month to date snowfall 0.0  
Since 1 July snowfall T  
Snow Depth 0.00 in    
Sea Level Pressure  
Sea Level Pressure 30.26 in    
Wind  
Wind Speed 4 mph (ENE)    
Max Wind Speed 10 mph    
Max Gust Speed 14 mph    
Visibility 10 miles    
Events Rain    
T = Trace of Precipitation, MM = Missing Value Source: NWS Daily Summary

Daily Weather History Graph

Daily Weather History Graph

Search for Another Location

Airport:

Trip Planner

Search our weather history database for the weather conditions in past years. The results will help you decide how hot, cold, wet, or windy it might be!

Date:

Astronomy

Jan. 09, 2014 Rise Set
Actual Time 7:10 AM CST 5:20 PM CST
Civil Twilight 6:43 AM CST 5:47 PM CST
Nautical Twilight 6:13 AM CST 6:17 PM CST
Astronomical Twilight 5:43 AM CST 6:47 PM CST
Moon 12:40 PM CST (1/9) 1:27 AM CST (1/9)
Length of Visible Light 11h 03m
Length of Day
10h 09m
Waxing Gibbous, 66% of the Moon is Illuminated
Jan 9
Waxing Gibbous
Jan 15
Full
Jan 23
Last Quarter
Jan 30
New
Feb 6
First Quarter

Hourly Weather History & Observations

Time (CST) Temp. Windchill Dew Point Humidity Pressure Visibility Wind Dir Wind Speed Gust Speed Precip Events Conditions
12:53 AM 39.9 °F - 36.0 °F 86% 30.34 in 10.0 mi Calm Calm - 0.00 in   Overcast
1:53 AM 39.9 °F 37.8 °F 33.1 °F 77% 30.32 in 10.0 mi ENE 3.5 mph - 0.01 in Rain Light Rain
2:53 AM 39.0 °F 34.8 °F 32.0 °F 76% 30.33 in 10.0 mi ENE 5.8 mph - 0.00 in Rain Light Rain
3:53 AM 37.9 °F 34.4 °F 33.1 °F 83% 30.32 in 10.0 mi East 4.6 mph - 0.00 in   Overcast
4:53 AM 37.9 °F 34.4 °F 33.1 °F 83% 30.30 in 10.0 mi East 4.6 mph - 0.01 in   Overcast
5:53 AM 39.0 °F 34.8 °F 32.0 °F 76% 30.29 in 10.0 mi East 5.8 mph - 0.00 in Rain Light Rain
6:53 AM 39.0 °F 34.8 °F 30.0 °F 70% 30.29 in 10.0 mi Variable 5.8 mph - 0.00 in   Mostly Cloudy
7:53 AM 39.9 °F 36.7 °F 28.9 °F 65% 30.29 in 10.0 mi ESE 4.6 mph - N/A   Overcast
8:53 AM 42.1 °F 39.2 °F 28.9 °F 60% 30.30 in 10.0 mi East 4.6 mph - 0.00 in Rain Light Rain
9:25 AM 42.8 °F 39.3 °F 32.0 °F 66% 30.34 in 10.0 mi North 5.8 mph - 0.01 in Rain Light Rain
9:53 AM 43.0 °F 38.8 °F 33.1 °F 68% 30.32 in 10.0 mi NE 6.9 mph - 0.01 in Rain Light Rain
10:53 AM 41.0 °F 37.1 °F 35.1 °F 79% 30.31 in 9.0 mi ENE 5.8 mph - 0.02 in Rain Light Rain
11:53 AM 41.0 °F 35.8 °F 37.0 °F 86% 30.27 in 4.0 mi ESE 8.1 mph - 0.08 in Rain Rain
12:53 PM 43.0 °F 41.3 °F 39.0 °F 86% 30.23 in 10.0 mi ESE 3.5 mph - 0.08 in Rain Light Rain
1:53 PM 46.0 °F 43.9 °F 41.0 °F 83% 30.21 in 10.0 mi East 4.6 mph - 0.00 in Rain Light Rain
2:53 PM 46.9 °F - 43.0 °F 86% 30.21 in 7.0 mi ENE 4.6 mph - 0.02 in Rain Light Rain
3:53 PM 46.9 °F - 43.0 °F 86% 30.21 in 10.0 mi NE 4.6 mph - 0.00 in   Overcast
5:53 PM 46.9 °F - 43.0 °F 86% 30.19 in 10.0 mi Calm Calm - 0.00 in Rain Light Rain
6:53 PM 46.9 °F - 44.1 °F 90% 30.19 in 10.0 mi East 5.8 mph - 0.00 in   Overcast
7:53 PM 46.0 °F 44.8 °F 43.0 °F 89% 30.19 in 10.0 mi NNE 3.5 mph - N/A   Mostly Cloudy
8:53 PM 46.0 °F - 44.1 °F 93% 30.20 in 10.0 mi Calm Calm - N/A   Overcast
9:53 PM 48.9 °F - 45.0 °F 86% 30.20 in 10.0 mi Calm Calm - N/A   Overcast
10:53 PM 48.9 °F - 45.0 °F 86% 30.19 in 10.0 mi Calm Calm - N/A   Overcast
11:53 PM 53.1 °F - 46.0 °F 77% 30.17 in 10.0 mi SSE 5.8 mph - N/A   Mostly Cloudy